User: anonymous
Location: Morehead State University
(38.1872°N, 83.4339°W)
Time: 23:45:11
(UTC-04:00)
Language:

Okean 2 - Orbit

View from above orbital plane
View from above orbital plane
View from above satellite
View from above satellite

Ground track
Ground track

The orbit data is extracted from the following two-line orbital elements,

1 20510U 90018A   14212.75896705  .00001068  00000-0  92757-4 0  7798
2 20510 082.5168 099.5570 0011537 290.3941 104.7756 14.96040136324047
Epoch (UTC): 31 July 2014 18:12:54
Eccentricity: 0.0011537
inclination: 82.5168°
perigee height: 571 km
apogee height: 587 km
right ascension of ascending node: 99.5570°
argument of perigee: 290.3941°
revolutions per day: 14.96040136
mean anomaly at epoch: 104.7756°
orbit number at epoch: 32404

The dashed part of the orbit path shows where the satellite is in the earth's shadow,  

DLR